Location: Newark
(13.8117°N, 3.6025°W)
Time: 11:44:26
(UTC+00:00)

Courier 1B - Pass Details

Date: 27 August 2019
Orbit: 962 x 1209 km, 28.3° (Epoch: 19 September)

Event Time Altitude Azimuth Distance (km) Brightness Sun altitude
Rises 20:22:02 0° 303° (WNW) 3,721 11.7 -27.3°
Reaches altitude 10° 20:24:55 10° 310° (NW) 2,741 10.7 -28.0°
Maximum altitude 20:31:06 41° 19° (NNE) 1,362 8.2 -29.4°
Enters shadow 20:31:18 41° 24° (NNE) 1,364 8.1 -29.4°
